Time,TemperatureF,DewpointF,PressureIn,WindDirection,WindDirectionDegrees,WindSpeedMPH,WindSpeedGustMPH,Humidity,HourlyPrecipIn,Conditions,Clouds,dailyrainin,SoftwareType,DateUTC
2013-08-30 00:00:00,63.4,62.8,29.99,North,350,0.0,0.0,98,0.00,,,0.03,Wunderground v.1.15,2013-08-30 04:00:00,
2013-08-30 00:05:00,63.3,62.7,29.98,North,349,0.0,0.0,98,0.00,,,0.00,Wunderground v.1.15,2013-08-30 04:05:00,
2013-08-30 00:15:00,63.1,62.8,29.98,North,350,0.0,0.0,99,0.00,,,0.00,Wunderground v.1.15,2013-08-30 04:15:00,
2013-08-30 00:25:00,63.0,62.7,29.98,North,350,0.0,0.0,99,0.00,,,0.00,Wunderground v.1.15,2013-08-30 04:25:00,
2013-08-30 00:30:00,62.9,62.6,29.98,North,350,0.0,0.0,99,0.00,,,0.00,Wunderground v.1.15,2013-08-30 04:30:00,
2013-08-30 00:40:00,62.7,62.4,29.97,North,349,0.0,0.0,99,0.00,,,0.00,Wunderground v.1.15,2013-08-30 04:40:00,
2013-08-30 00:45:00,62.6,62.3,29.97,North,349,0.0,0.0,99,0.00,,,0.00,Wunderground v.1.15,2013-08-30 04:45:00,
2013-08-30 00:50:00,62.5,62.2,29.97,North,349,0.0,0.0,99,0.00,,,0.00,Wunderground v.1.15,2013-08-30 04:50:00,
2013-08-30 00:55:00,62.5,62.2,29.97,North,350,0.0,0.0,99,0.00,,,0.00,Wunderground v.1.15,2013-08-30 04:55:00,
2013-08-30 01:05:00,62.4,62.1,29.97,North,350,1.0,2.0,99,0.00,,,0.00,Wunderground v.1.15,2013-08-30 05:05:00,
2013-08-30 01:15:00,62.6,62.3,29.96,North,350,2.0,2.0,99,0.00,,,0.00,Wunderground v.1.15,2013-08-30 05:15:00,
2013-08-30 01:25:00,62.9,62.6,29.97,North,349,1.0,2.0,99,0.00,,,0.00,Wunderground v.1.15,2013-08-30 05:25:00,
2013-08-30 01:35:00,62.9,62.6,29.97,North,349,1.0,1.0,99,0.00,,,0.00,Wunderground v.1.15,2013-08-30 05:35:00,
2013-08-30 01:40:00,63.0,63.0,29.97,North,349,2.0,3.0,100,0.00,,,0.00,Wunderground v.1.15,2013-08-30 05:40:00,
2013-08-30 01:50:00,62.9,62.6,29.97,North,349,1.0,1.0,99,0.00,,,0.00,Wunderground v.1.15,2013-08-30 05:50:00,
2013-08-30 02:00:00,62.8,62.8,29.96,North,350,2.0,2.0,100,0.00,,,0.00,Wunderground v.1.15,2013-08-30 06:00:00,
2013-08-30 02:05:00,62.8,62.8,29.97,North,350,1.0,2.0,100,0.00,,,0.00,Wunderground v.1.15,2013-08-30 06:05:00,
2013-08-30 02:15:00,62.8,62.8,29.97,North,350,2.0,4.0,100,0.00,,,0.00,Wunderground v.1.15,2013-08-30 06:15:00,
2013-08-30 02:25:00,62.9,62.9,29.96,North,350,3.0,3.0,100,0.00,,,0.00,Wunderground v.1.15,2013-08-30 06:25:00,
2013-08-30 02:35:00,62.7,62.7,29.95,North,350,3.0,5.0,100,0.00,,,0.00,Wunderground v.1.15,2013-08-30 06:35:00,
2013-08-30 02:45:00,62.5,62.5,29.95,North,350,3.0,3.0,100,0.00,,,0.00,Wunderground v.1.15,2013-08-30 06:45:00,
2013-08-30 02:55:00,62.3,62.3,29.95,North,350,3.0,3.0,100,0.00,,,0.00,Wunderground v.1.15,2013-08-30 06:55:00,
2013-08-30 03:05:00,62.1,62.1,29.95,North,350,2.0,2.0,100,0.00,,,0.00,Wunderground v.1.15,2013-08-30 07:05:00,
2013-08-30 03:15:00,61.8,61.8,29.95,North,350,2.0,2.0,100,0.00,,,0.00,Wunderground v.1.15,2013-08-30 07:15:00,
2013-08-30 03:25:00,61.8,61.8,29.95,North,350,3.0,3.0,100,0.00,,,0.00,Wunderground v.1.15,2013-08-30 07:25:00,
2013-08-30 03:35:00,61.8,61.8,29.95,North,349,3.0,3.0,100,0.00,,,0.00,Wunderground v.1.15,2013-08-30 07:35:00,
2013-08-30 03:45:00,61.8,61.8,29.95,North,350,2.0,3.0,100,0.00,,,0.00,Wunderground v.1.15,2013-08-30 07:45:00,
2013-08-30 03:55:00,62.0,62.0,29.94,North,350,3.0,3.0,100,0.00,,,0.00,Wunderground v.1.15,2013-08-30 07:55:00,
2013-08-30 04:05:00,62.1,62.1,29.94,North,350,4.0,5.0,100,0.00,,,0.00,Wunderground v.1.15,2013-08-30 08:05:00,
2013-08-30 04:15:00,62.1,62.1,29.94,North,349,3.0,4.0,100,0.00,,,0.00,Wunderground v.1.15,2013-08-30 08:15:00,
2013-08-30 04:25:00,62.0,62.0,29.94,North,349,3.0,3.0,100,0.00,,,0.00,Wunderground v.1.15,2013-08-30 08:25:00,
2013-08-30 04:35:00,62.0,62.0,29.94,North,349,2.0,3.0,100,0.00,,,0.00,Wunderground v.1.15,2013-08-30 08:35:00,
2013-08-30 04:45:00,62.0,62.0,29.94,North,350,1.0,2.0,100,0.00,,,0.00,Wunderground v.1.15,2013-08-30 08:45:00,
2013-08-30 04:55:00,62.0,62.0,29.94,North,350,2.0,3.0,100,0.00,,,0.00,Wunderground v.1.15,2013-08-30 08:55:00,
2013-08-30 05:05:00,62.0,62.0,29.95,North,350,2.0,2.0,100,0.00,,,0.00,Wunderground v.1.15,2013-08-30 09:05:00,
2013-08-30 05:15:00,62.0,62.0,29.94,North,349,3.0,3.0,100,0.00,,,0.00,Wunderground v.1.15,2013-08-30 09:15:00,
2013-08-30 05:25:00,61.9,61.9,29.94,North,350,2.0,3.0,100,0.00,,,0.00,Wunderground v.1.15,2013-08-30 09:25:00,
2013-08-30 05:35:00,61.8,61.8,29.95,North,350,1.0,2.0,100,0.00,,,0.00,Wunderground v.1.15,2013-08-30 09:35:00,
2013-08-30 05:40:00,61.7,61.7,29.94,North,350,1.0,2.0,100,0.00,,,0.00,Wunderground v.1.15,2013-08-30 09:40:00,
2013-08-30 05:50:00,61.4,61.4,29.94,North,349,3.0,3.0,100,0.00,,,0.00,Wunderground v.1.15,2013-08-30 09:50:00,
2013-08-30 06:00:00,61.3,61.3,29.95,North,350,2.0,2.0,100,0.00,,,0.00,Wunderground v.1.15,2013-08-30 10:00:00,
2013-08-30 06:05:00,61.2,61.2,29.95,North,350,2.0,3.0,100,0.00,,,0.00,Wunderground v.1.15,2013-08-30 10:05:00,
2013-08-30 06:10:00,61.1,61.1,29.95,North,350,2.0,2.0,100,0.00,,,0.00,Wunderground v.1.15,2013-08-30 10:10:00,
2013-08-30 06:20:00,61.2,61.2,29.95,North,350,3.0,3.0,100,0.00,,,0.00,Wunderground v.1.15,2013-08-30 10:20:00,
2013-08-30 06:30:00,61.2,61.2,29.95,North,350,2.0,2.0,100,0.00,,,0.00,Wunderground v.1.15,2013-08-30 10:30:00,
2013-08-30 06:40:00,61.3,61.3,29.95,North,350,3.0,3.0,100,0.00,,,0.00,Wunderground v.1.15,2013-08-30 10:40:00,
2013-08-30 06:50:00,61.3,61.3,29.94,North,350,3.0,3.0,100,0.00,,,0.00,Wunderground v.1.15,2013-08-30 10:50:00,
2013-08-30 07:00:00,61.4,61.4,29.94,North,350,2.0,2.0,100,0.00,,,0.00,Wunderground v.1.15,2013-08-30 11:00:00,
2013-08-30 07:10:00,61.4,61.4,29.94,North,349,2.0,3.0,100,0.00,,,0.00,Wunderground v.1.15,2013-08-30 11:10:00,
2013-08-30 07:20:00,61.4,61.4,29.95,North,349,3.0,3.0,100,0.00,,,0.00,Wunderground v.1.15,2013-08-30 11:20:00,
2013-08-30 07:30:00,61.6,61.6,29.95,North,349,3.0,3.0,100,0.00,,,0.00,Wunderground v.1.15,2013-08-30 11:30:00,
2013-08-30 07:40:00,62.0,62.0,29.95,North,350,3.0,4.0,100,0.00,,,0.00,Wunderground v.1.15,2013-08-30 11:40:00,
2013-08-30 07:50:00,62.7,62.7,29.95,North,349,3.0,3.0,100,0.00,,,0.00,Wunderground v.1.15,2013-08-30 11:50:00,
2013-08-30 07:55:00,63.1,63.1,29.94,North,349,3.0,3.0,100,0.00,,,0.00,Wunderground v.1.15,2013-08-30 11:55:00,
2013-08-30 08:05:00,63.9,63.9,29.94,North,349,3.0,4.0,100,0.00,,,0.00,Wunderground v.1.15,2013-08-30 12:05:00,
2013-08-30 08:50:00,67.2,66.6,29.94,North,350,4.0,4.0,98,0.00,,,0.00,Wunderground v.1.15,2013-08-30 12:50:00,
2013-08-30 09:00:00,68.1,67.2,29.94,North,349,4.0,4.0,97,0.00,,,0.00,Wunderground v.1.15,2013-08-30 13:00:00,
2013-08-30 09:10:00,69.4,68.2,29.94,North,349,3.0,3.0,96,0.00,,,0.00,Wunderground v.1.15,2013-08-30 13:10:00,
2013-08-30 09:20:00,70.4,69.2,29.94,North,350,1.0,5.0,96,0.00,,,0.00,Wunderground v.1.15,2013-08-30 13:20:00,
2013-08-30 09:30:00,71.3,69.5,29.94,North,350,2.0,2.0,94,0.00,,,0.00,Wunderground v.1.15,2013-08-30 13:30:00,
2013-08-30 09:40:00,72.2,69.4,29.94,North,349,2.0,2.0,91,0.00,,,0.00,Wunderground v.1.15,2013-08-30 13:40:00,
2013-08-30 09:50:00,72.9,69.8,29.93,North,349,1.0,1.0,90,0.00,,,0.00,Wunderground v.1.15,2013-08-30 13:50:00,
2013-08-30 10:00:00,73.5,70.4,29.93,North,350,0.0,1.0,90,0.00,,,0.00,Wunderground v.1.15,2013-08-30 14:00:00,
2013-08-30 10:10:00,74.4,70.6,29.92,North,349,1.0,4.0,88,0.00,,,0.00,Wunderground v.1.15,2013-08-30 14:10:00,
2013-08-30 10:20:00,75.2,71.1,29.92,North,350,1.0,1.0,87,0.00,,,0.00,Wunderground v.1.15,2013-08-30 14:20:00,
2013-08-30 10:30:00,76.0,71.5,29.91,North,350,1.0,1.0,86,0.00,,,0.00,Wunderground v.1.15,2013-08-30 14:30:00,
2013-08-30 10:40:00,76.8,71.9,29.91,North,349,1.0,1.0,85,0.00,,,0.00,Wunderground v.1.15,2013-08-30 14:40:00,
2013-08-30 10:50:00,77.5,71.2,29.91,SSW,194,5.0,5.0,81,0.00,,,0.00,Wunderground v.1.15,2013-08-30 14:50:00,
2013-08-30 11:00:00,78.0,72.1,29.91,SSW,196,1.0,1.0,82,0.00,,,0.00,Wunderground v.1.15,2013-08-30 15:00:00,
2013-08-30 11:10:00,78.8,71.7,29.91,SSW,199,3.0,3.0,79,0.00,,,0.00,Wunderground v.1.15,2013-08-30 15:10:00,
2013-08-30 11:20:00,79.4,71.9,29.91,SSW,194,4.0,5.0,78,0.00,,,0.00,Wunderground v.1.15,2013-08-30 15:20:00,
2013-08-30 11:25:00,79.6,71.0,29.91,South,191,5.0,5.0,75,0.00,,,0.00,Wunderground v.1.15,2013-08-30 15:25:00,
2013-08-30 11:35:00,80.3,72.0,29.90,SSW,192,2.0,4.0,76,0.00,,,0.00,Wunderground v.1.15,2013-08-30 15:35:00,
2013-08-30 11:45:00,80.6,71.1,29.89,SSW,194,3.0,7.0,73,0.00,,,0.00,Wunderground v.1.15,2013-08-30 15:45:00,
2013-08-30 11:50:00,80.8,71.3,29.89,South,186,5.0,6.0,73,0.00,,,0.00,Wunderground v.1.15,2013-08-30 15:50:00,
2013-08-30 12:00:00,81.2,71.3,29.89,South,188,3.0,3.0,72,0.00,,,0.00,Wunderground v.1.15,2013-08-30 16:00:00,
2013-08-30 12:05:00,81.4,69.8,29.89,SSW,198,1.0,3.0,68,0.00,,,0.00,Wunderground v.1.15,2013-08-30 16:05:00,
2013-08-30 12:15:00,81.9,72.0,29.88,SSW,198,1.0,1.0,72,0.00,,,0.00,Wunderground v.1.15,2013-08-30 16:15:00,
2013-08-30 12:25:00,82.6,72.7,29.88,SSW,198,3.0,4.0,72,0.00,,,0.00,Wunderground v.1.15,2013-08-30 16:25:00,
2013-08-30 12:35:00,82.9,70.8,29.87,West,263,2.0,2.0,67,0.00,,,0.00,Wunderground v.1.15,2013-08-30 16:35:00,
2013-08-30 12:40:00,83.1,70.6,29.87,SW,227,2.0,4.0,66,0.00,,,0.00,Wunderground v.1.15,2013-08-30 16:40:00,
2013-08-30 12:50:00,83.7,70.7,29.87,SW,215,3.0,6.0,65,0.00,,,0.00,Wunderground v.1.15,2013-08-30 16:50:00,
2013-08-30 12:55:00,83.9,70.4,29.87,SSW,213,2.0,6.0,64,0.00,,,0.00,Wunderground v.1.15,2013-08-30 16:55:00,
2013-08-30 13:05:00,84.1,69.7,29.87,SW,219,2.0,3.0,62,0.00,,,0.00,Wunderground v.1.15,2013-08-30 17:05:00,
2013-08-30 13:15:00,84.6,70.6,29.86,SW,219,2.0,2.0,63,0.00,,,0.00,Wunderground v.1.15,2013-08-30 17:15:00,
2013-08-30 13:25:00,84.3,70.8,29.86,SSW,203,3.0,7.0,64,0.00,,,0.00,Wunderground v.1.15,2013-08-30 17:25:00,
2013-08-30 13:35:00,83.9,71.8,29.86,SSW,205,2.0,8.0,67,0.00,,,0.00,Wunderground v.1.15,2013-08-30 17:35:00,
2013-08-30 13:45:00,83.4,71.7,29.86,SSW,205,1.0,2.0,68,0.00,,,0.00,Wunderground v.1.15,2013-08-30 17:45:00,
2013-08-30 13:55:00,83.5,71.8,29.86,SSW,205,1.0,1.0,68,0.00,,,0.00,Wunderground v.1.15,2013-08-30 17:55:00,
2013-08-30 14:00:00,83.6,71.9,29.85,SW,220,1.0,2.0,68,0.00,,,0.00,Wunderground v.1.15,2013-08-30 18:00:00,
2013-08-30 14:10:00,83.9,72.2,29.85,SW,220,1.0,1.0,68,0.00,,,0.00,Wunderground v.1.15,2013-08-30 18:10:00,
2013-08-30 14:15:00,83.8,71.2,29.85,SW,220,1.0,1.0,66,0.00,,,0.00,Wunderground v.1.15,2013-08-30 18:15:00,
2013-08-30 14:25:00,83.4,71.7,29.85,SW,220,0.0,0.0,68,0.00,,,0.00,Wunderground v.1.15,2013-08-30 18:25:00,
2013-08-30 14:35:00,83.2,72.0,29.85,SW,220,1.0,3.0,69,0.00,,,0.00,Wunderground v.1.15,2013-08-30 18:35:00,
2013-08-30 14:45:00,82.9,71.7,29.84,SW,220,1.0,1.0,69,0.00,,,0.00,Wunderground v.1.15,2013-08-30 18:45:00,
2013-08-30 14:50:00,82.8,72.0,29.84,SW,220,0.0,1.0,70,0.00,,,0.00,Wunderground v.1.15,2013-08-30 18:50:00,
2013-08-30 15:00:00,82.6,72.2,29.84,SW,220,0.0,0.0,71,0.00,,,0.00,Wunderground v.1.15,2013-08-30 19:00:00,
2013-08-30 15:05:00,82.5,72.6,29.84,SW,220,0.0,0.0,72,0.00,,,0.00,Wunderground v.1.15,2013-08-30 19:05:00,
2013-08-30 15:15:00,82.3,72.4,29.84,SW,220,0.0,0.0,72,0.00,,,0.00,Wunderground v.1.15,2013-08-30 19:15:00,
2013-08-30 15:25:00,82.2,72.3,29.83,SW,220,0.0,0.0,72,0.00,,,0.00,Wunderground v.1.15,2013-08-30 19:25:00,
2013-08-30 15:35:00,82.4,73.3,29.83,SW,219,0.0,0.0,74,0.00,,,0.00,Wunderground v.1.15,2013-08-30 19:35:00,
2013-08-30 15:45:00,82.8,74.1,29.82,SW,220,0.0,0.0,75,0.00,,,0.01,Wunderground v.1.15,2013-08-30 19:45:00,
2013-08-30 15:55:00,83.2,74.0,29.82,SW,220,0.0,2.0,74,0.00,,,0.01,Wunderground v.1.15,2013-08-30 19:55:00,
2013-08-30 16:05:00,84.0,73.6,29.81,SW,220,0.0,0.0,71,0.00,,,0.01,Wunderground v.1.15,2013-08-30 20:05:00,
2013-08-30 16:15:00,84.8,73.9,29.80,SW,220,1.0,2.0,70,0.00,,,0.01,Wunderground v.1.15,2013-08-30 20:15:00,
2013-08-30 16:25:00,85.2,74.3,29.80,SW,220,0.0,1.0,70,0.00,,,0.01,Wunderground v.1.15,2013-08-30 20:25:00,
2013-08-30 16:30:00,85.6,74.3,29.80,SW,220,1.0,1.0,69,0.00,,,0.01,Wunderground v.1.15,2013-08-30 20:30:00,
2013-08-30 16:40:00,85.6,73.8,29.79,SW,220,2.0,2.0,68,0.00,,,0.01,Wunderground v.1.15,2013-08-30 20:40:00,
2013-08-30 16:50:00,85.6,73.8,29.79,SW,220,0.0,0.0,68,0.00,,,0.01,Wunderground v.1.15,2013-08-30 20:50:00,
2013-08-30 17:00:00,85.6,74.3,29.78,SW,220,0.0,0.0,69,0.00,,,0.01,Wunderground v.1.15,2013-08-30 21:00:00,
2013-08-30 17:05:00,85.8,75.3,29.78,SW,220,0.0,1.0,71,0.00,,,0.01,Wunderground v.1.15,2013-08-30 21:05:00,
2013-08-30 17:15:00,85.9,74.5,29.77,SW,220,1.0,2.0,69,0.00,,,0.01,Wunderground v.1.15,2013-08-30 21:15:00,
2013-08-30 17:25:00,85.4,74.1,29.77,SW,220,1.0,2.0,69,0.00,,,0.01,Wunderground v.1.15,2013-08-30 21:25:00,
2013-08-30 17:35:00,84.9,74.0,29.76,SW,220,0.0,0.0,70,0.00,,,0.01,Wunderground v.1.15,2013-08-30 21:35:00,
2013-08-30 17:40:00,85.0,73.7,29.76,SW,220,1.0,2.0,69,0.00,,,0.01,Wunderground v.1.15,2013-08-30 21:40:00,
2013-08-30 17:50:00,85.0,73.7,29.76,SW,220,0.0,0.0,69,0.00,,,0.01,Wunderground v.1.15,2013-08-30 21:50:00,
2013-08-30 18:00:00,85.1,73.8,29.76,SW,220,0.0,1.0,69,0.00,,,0.01,Wunderground v.1.15,2013-08-30 22:00:00,
2013-08-30 18:10:00,84.7,73.8,29.77,SW,219,1.0,3.0,70,0.00,,,0.01,Wunderground v.1.15,2013-08-30 22:10:00,
2013-08-30 18:20:00,84.0,73.6,29.77,SW,219,1.0,1.0,71,0.00,,,0.01,Wunderground v.1.15,2013-08-30 22:20:00,
2013-08-30 18:30:00,83.1,73.1,29.77,SW,220,1.0,1.0,72,0.00,,,0.01,Wunderground v.1.15,2013-08-30 22:30:00,
2013-08-30 18:35:00,82.5,73.0,29.77,SW,220,1.0,1.0,73,0.00,,,0.01,Wunderground v.1.15,2013-08-30 22:35:00,
2013-08-30 18:45:00,81.7,72.6,29.77,SW,221,0.0,1.0,74,0.00,,,0.01,Wunderground v.1.15,2013-08-30 22:45:00,
2013-08-30 18:55:00,81.0,71.9,29.77,SW,221,0.0,0.0,74,0.00,,,0.01,Wunderground v.1.15,2013-08-30 22:55:00,
2013-08-30 19:05:00,80.4,71.7,29.77,SW,221,0.0,0.0,75,0.00,,,0.01,Wunderground v.1.15,2013-08-30 23:05:00,
2013-08-30 19:15:00,79.9,71.7,29.76,SW,221,0.0,0.0,76,0.00,,,0.01,Wunderground v.1.15,2013-08-30 23:15:00,
2013-08-30 19:25:00,79.3,71.8,29.76,SW,221,0.0,0.0,78,0.00,,,0.01,Wunderground v.1.15,2013-08-30 23:25:00,
2013-08-30 19:30:00,78.9,71.8,29.76,SW,221,0.0,0.0,79,0.00,,,0.01,Wunderground v.1.15,2013-08-30 23:30:00,
2013-08-30 19:40:00,78.2,71.9,29.76,SW,221,0.0,0.0,81,0.00,,,0.01,Wunderground v.1.15,2013-08-30 23:40:00,
2013-08-30 19:50:00,77.3,71.7,29.77,SW,221,0.0,0.0,83,0.00,,,0.01,Wunderground v.1.15,2013-08-30 23:50:00,
2013-08-30 20:00:00,76.6,71.4,29.77,SW,220,0.0,0.0,84,0.00,,,0.01,Wunderground v.1.15,2013-08-31 00:00:00,
2013-08-30 20:10:00,75.9,71.1,29.77,SW,221,0.0,0.0,85,0.00,,,0.01,Wunderground v.1.15,2013-08-31 00:10:00,
2013-08-30 20:20:00,75.4,71.3,29.78,SW,219,0.0,0.0,87,0.00,,,0.01,Wunderground v.1.15,2013-08-31 00:20:00,
2013-08-30 20:30:00,74.9,70.8,29.78,SW,221,0.0,0.0,87,0.00,,,0.01,Wunderground v.1.15,2013-08-31 00:30:00,
2013-08-30 20:40:00,74.5,70.7,29.79,SW,221,0.0,0.0,88,0.00,,,0.01,Wunderground v.1.15,2013-08-31 00:40:00,
2013-08-30 20:50:00,74.1,70.6,29.79,SW,220,0.0,0.0,89,0.00,,,0.01,Wunderground v.1.15,2013-08-31 00:50:00,
2013-08-30 21:00:00,73.8,71.0,29.78,SW,221,0.0,0.0,91,0.00,,,0.01,Wunderground v.1.15,2013-08-31 01:00:00,
2013-08-30 21:10:00,73.1,70.3,29.77,SW,221,0.0,0.0,91,0.00,,,0.01,Wunderground v.1.15,2013-08-31 01:10:00,
2013-08-30 21:15:00,73.0,70.5,29.76,SW,221,0.0,0.0,92,0.00,,,0.01,Wunderground v.1.15,2013-08-31 01:15:00,
2013-08-30 21:25:00,72.8,70.3,29.75,SW,221,0.0,0.0,92,0.00,,,0.01,Wunderground v.1.15,2013-08-31 01:25:00,
2013-08-30 21:35:00,72.5,70.0,29.75,SW,221,0.0,0.0,92,0.00,,,0.01,Wunderground v.1.15,2013-08-31 01:35:00,
2013-08-30 21:45:00,72.3,70.2,29.75,SW,219,0.0,0.0,93,0.00,,,0.01,Wunderground v.1.15,2013-08-31 01:45:00,
2013-08-30 21:50:00,72.3,70.2,29.75,SW,219,0.0,0.0,93,0.00,,,0.01,Wunderground v.1.15,2013-08-31 01:50:00,
2013-08-30 22:00:00,72.1,70.0,29.75,SW,221,0.0,0.0,93,0.00,,,0.01,Wunderground v.1.15,2013-08-31 02:00:00,
2013-08-30 22:05:00,72.0,70.2,29.74,SW,221,0.0,0.0,94,0.00,,,0.01,Wunderground v.1.15,2013-08-31 02:05:00,
2013-08-30 22:15:00,71.8,70.0,29.74,SW,221,0.0,0.0,94,0.00,,,0.01,Wunderground v.1.15,2013-08-31 02:15:00,
2013-08-30 22:20:00,71.8,70.3,29.74,SW,220,0.0,0.0,95,0.00,,,0.01,Wunderground v.1.15,2013-08-31 02:20:00,
2013-08-30 22:25:00,71.8,70.3,29.74,SW,221,0.0,0.0,95,0.00,,,0.01,Wunderground v.1.15,2013-08-31 02:25:00,
2013-08-30 22:35:00,71.7,70.2,29.75,SW,220,0.0,0.0,95,0.00,,,0.01,Wunderground v.1.15,2013-08-31 02:35:00,
2013-08-30 22:45:00,71.5,70.0,29.75,SW,221,0.0,0.0,95,0.00,,,0.01,Wunderground v.1.15,2013-08-31 02:45:00,
2013-08-30 22:55:00,71.3,69.8,29.75,SW,219,0.0,0.0,95,0.00,,,0.01,Wunderground v.1.15,2013-08-31 02:55:00,
2013-08-30 23:05:00,71.3,70.1,29.75,SW,219,0.0,0.0,96,0.00,,,0.01,Wunderground v.1.15,2013-08-31 03:05:00,
2013-08-30 23:15:00,71.1,69.9,29.75,SW,221,0.0,0.0,96,0.00,,,0.01,Wunderground v.1.15,2013-08-31 03:15:00,
2013-08-30 23:25:00,71.1,70.2,29.74,SW,219,0.0,0.0,97,0.00,,,0.01,Wunderground v.1.15,2013-08-31 03:25:00,
2013-08-30 23:35:00,71.0,70.1,29.74,SW,220,0.0,0.0,97,0.00,,,0.01,Wunderground v.1.15,2013-08-31 03:35:00,
2013-08-30 23:45:00,70.9,70.0,29.73,SW,220,0.0,0.0,97,0.00,,,0.01,Wunderground v.1.15,2013-08-31 03:45:00,
2013-08-30 23:55:00,70.8,69.9,29.72,SW,221,0.0,0.0,97,0.00,,,0.01,Wunderground v.1.15,2013-08-31 03:55:00,